[[{"header":{"parameterUnit":"m.s-1","parameterCategory":2,"la1":30.2991,"la2":30.254,"lo1":-89.0895,"lo2":-89.0444,"dy":0.0017,"dx":0.0017,"nx":28,"ny":28,"refTime":"2026-01-01T09:00:00:Z","depth":"0","parameterNumber":2,"parameterNumberName":"U-component_of_CURRENTS"},"data":[0,0,0,0,0,0,0,0,0,0,0,0,0,0,0,0,0,0,0,0,0,0,0,0,0,0,0,0,0,0,0,0,0,0,0,0,0,0,0,0,0,0,0,0,0,0,0,0,0,0,0,0,0,0,0,0,0,0,-0.2388,-0.2389,0,-0.2455,-0.2455,-0.2456,-0.2417,-0.2416,-0.2414,-0.2413,-0.2318,-0.2316,-0.2315,0,0,0,0,0,0,0,0,0,0,0,0,0,-0.2206,-0.221,-0.2388,-0.2389,-0.2391,-0.2455,-0.2455,-0.2456,-0.2417,-0.2416,-0.2414,-0.2412,-0.2318,-0.2317,-0.2315,0,0,0,0,0,0,0,0,0,0,0,0,0,-0.2277,-0.2211,-0.2388,-0.2382,-0.2383,-0.2455,-0.2455,-0.2456,-0.2418,-0.2416,-0.2413,-0.2411,-0.2318,-0.2317,-0.2315,-0.235,0,0,-0.231,-0.2309,0,0,0,0,0,0,0,0,-0.2273,-0.2283,-0.2382,-0.2383,-0.2383,-0.2429,-0.2357,-0.2414,-0.2418,-0.24,-0.2413,-0.241,-0.2344,-0.234,-0.2354,-0.2345,-0.2341,-0.231,-0.2309,-0.2308,-0.2307,0,0,0,0,0,0,0,-0.2268,-0.228,-0.241,-0.2383,-0.2384,-0.2369,-0.2377,-0.2368,-0.2378,-0.2401,-0.24,-0.2415,-0.2342,-0.2356,-0.2351,-0.234,-0.231,-0.2308,-0.2307,-0.2307,-0.2318,-0.232,0,0,0,0,0,0,-0.2273,-0.2276,-0.2408,-0.2413,-0.2326,-0.2375,-0.2383,-0.2413,-0.2381,-0.2377,-0.2417,-0.2413,-0.236,-0.2353,-0.2348,-0.2343,-0.2308,-0.2306,-0.2305,-0.2317,-0.2319,-0.232,0,0,0,0,0,0,-0.2269,-0.2284,-0.2406,-0.2347,-0.2362,-0.2381,-0.2415,-0.2416,-0.2422,-0.2395,-0.2386,-0.2421,-0.2358,-0.235,-0.2345,-0.234,-0.2306,-0.2304,-0.2315,-0.2318,-0.2319,-0.2361,0,0,0,0,0,0,-0.2263,-0.2283,-0.2296,-0.2349,-0.2366,-0.2446,-0.2418,-0.2419,-0.2437,-0.2432,-0.2396,-0.2386,-0.2356,-0.2348,-0.2344,-0.2337,-0.2303,-0.2314,-0.2316,-0.2319,-0.2358,-0.2364,-0.237,0,0,0,0,0,-0.2257,-0.2288,-0.2297,-0.2312,-0.2388,-0.2448,-0.2455,-0.2456,-0.2439,-0.2451,-0.2431,-0.2387,-0.236,-0.2349,-0.2343,-0.2335,-0.2313,-0.2316,-0.2319,-0.2356,-0.2363,-0.237,0,0,0,0,0,0,-0.2211,-0.2289,-0.2299,-0.235,-0.2395,-0.2442,-0.2452,-0.2463,-0.2462,-0.2446,-0.2412,-0.2402,-0.239,-0.2373,-0.2361,-0.235,-0.2326,-0.2328,-0.2356,-0.2363,-0.2369,-0.2348,-0.2301,0,0,0,0,0,-0.2213,-0.2249,-0.2323,-0.2355,-0.2382,-0.2419,-0.2439,-0.2452,-0.2466,-0.2464,-0.2446,-0.2422,-0.2404,-0.2391,-0.2374,-0.2379,-0.234,-0.237,-0.2376,-0.2381,-0.2362,-0.2331,-0.2331,-0.233,-0.233,-0.233,0,0,-0.2199,-0.2247,-0.2265,-0.2346,-0.2375,-0.2412,-0.2423,-0.2463,-0.2476,-0.2453,-0.2451,-0.2441,-0.2412,-0.2408,-0.2401,-0.2388,-0.2362,-0.2384,-0.2388,-0.2367,-0.2334,-0.2334,-0.2333,-0.2332,-0.2332,-0.2331,0,0,-0.2189,-0.224,-0.2265,-0.231,-0.2372,-0.2404,-0.2418,-0.2477,-0.2482,-0.2506,-0.248,-0.248,-0.2462,-0.2444,-0.2429,-0.2464,-0.2394,-0.2453,-0.246,-0.2431,-0.243,-0.2429,-0.2379,-0.2373,-0.2455,-0.2455,-0.2455,0,-0.2165,-0.2216,-0.2278,-0.2315,-0.2345,-0.2399,-0.2428,-0.2456,-0.2499,-0.2503,-0.2502,-0.2486,-0.2476,-0.2453,-0.2468,-0.2472,-0.2433,-0.2433,-0.2436,-0.2434,-0.2431,-0.2381,-0.2373,-0.2458,-0.2457,-0.2457,-0.2457,0,-0.2177,-0.2216,-0.2236,-0.2297,-0.2338,-0.2378,-0.2437,-0.2464,-0.2484,-0.2505,-0.2506,-0.2509,-0.2493,-0.2499,-0.2492,-0.2473,-0.2441,-0.2445,-0.2411,-0.2433,-0.238,-0.2371,-0.2461,-0.246,-0.2459,-0.2459,0,0,-0.2127,-0.2225,-0.2227,-0.2253,-0.2337,-0.2373,-0.2405,-0.2453,-0.2461,-0.2495,-0.2495,-0.2499,-0.2504,-0.2489,-0.2485,-0.247,-0.2441,-0.2451,-0.2449,-0.2389,-0.2348,-0.2249,-0.2229,-0.2437,-0.2436,-0.2435,-0.2316,0,-0.2111,-0.2167,-0.2222,-0.226,-0.2299,-0.2362,-0.2386,-0.2431,-0.2463,-0.2481,-0.2489,-0.2487,-0.2497,-0.2493,-0.2482,-0.2456,-0.2419,-0.2471,-0.2346,-0.2341,-0.224,-0.2217,-0.2073,-0.1948,-0.2307,-0.2306,-0.2305,0,-0.2101,-0.2142,-0.2182,-0.2254,-0.2275,-0.2299,-0.235,-0.2384,-0.2424,-0.2447,-0.2453,-0.2462,-0.2454,-0.2462,-0.2401,-0.2428,-0.2381,-0.2356,-0.2351,-0.223,-0.2225,-0.1986,-0.1918,-0.1911,-0.2291,-0.2292,-0.2293,0,-0.2036,-0.2113,-0.2139,-0.2167,-0.2254,-0.2268,-0.2307,-0.236,-0.2383,-0.2417,-0.2424,-0.2424,-0.2407,-0.2373,-0.2338,-0.2363,-0.2249,-0.2283,-0.2135,-0.2127,-0.1964,-0.1943,-0.1858,-0.2205,-0.2206,-0.2206,-0.2206,0,-0.2008,-0.2025,-0.2108,-0.2122,-0.2143,-0.2221,-0.2238,-0.2283,-0.2329,-0.2333,-0.2389,-0.2368,-0.2381,-0.2332,-0.2308,-0.2178,-0.2219,-0.2107,-0.2082,-0.1976,-0.1959,-0.1912,-0.1968,-0.2202,-0.2203,-0.2203,-0.2204,0,-0.1931,-0.1991,-0.2022,-0.2097,-0.2115,-0.2125,-0.2191,-0.2199,-0.2261,-0.2263,-0.2269,-0.2304,-0.2233,-0.2217,-0.2147,-0.2108,-0.198,-0.1963,-0.1828,-0.1788,-0.1654,-0.1718,-0.1622,-0.1581,-0.1783,-0.1779,-0.1776,0,-0.1896,-0.1905,-0.1975,-0.1979,-0.2006,-0.2037,-0.205,-0.2142,-0.2156,-0.2204,-0.2186,-0.2145,-0.2063,-0.1931,-0.1856,-0.1746,-0.1809,-0.1577,-0.1605,-0.1594,-0.1649,-0.1732,-0.1713,-0.1408,-0.1403,-0.1398,-0.1395,0,-0.1811,-0.1835,-0.1855,-0.1869,-0.1882,-0.1902,-0.1934,-0.1938,-0.2026,-0.2013,-0.1972,-0.1911,-0.179,-0.1609,-0.1492,-0.1435,-0.1544,-0.1478,-0.1498,-0.1359,-0.141,-0.1375,-0.1548,-0.1354,-0.1358,-0.1361,-0.1363,-0.1365,-0.1725,-0.1715,-0.1737,-0.1735,-0.175,-0.1734,-0.1684,-0.1714,-0.1688,-0.161,-0.1683,-0.1471,-0.1429,-0.1225,-0.1181,-0.107,-0.121,-0.1045,-0.1124,-0.121,-0.1165,-0.1236,-0.1006,-0.1008,-0.101,-0.1011,-0.1013,0,-0.1607,-0.1605,-0.1598,-0.1583,-0.1532,-0.1592,-0.1572,-0.148,-0.1361,-0.1276,-0.1172,-0.0946,-0.0837,-0.0827,-0.0782,-0.0742,-0.0773,-0.0761,-0.0852,-0.085,-0.09,-0.0876,-0.0568,-0.0568,-0.0568,-0.0568,-0.0568,-0.0568,-0.1544,-0.1493,-0.1488,-0.1364,-0.1341,-0.1216,-0.1161,-0.1038,-0.0923,-0.0642,-0.0417,-0.03,-0.0431,-0.0669,-0.0681,-0.0637,-0.0698,-0.0653,-0.0761,-0.0811,-0.0845,-0.0878,-0.0865,-0.056,-0.056,-0.063,-0.0631,-0.0631]},{"header":{"parameterUnit":"m.s-1","parameterCategory":2,"la1":30.2991,"la2":30.254,"lo1":-89.0895,"lo2":-89.0444,"dy":0.0017,"dx":0.0017,"nx":28,"ny":28,"refTime":"2026-01-01T09:00:00:Z","depth":"0","parameterNumber":3,"parameterNumberName":"V-component_of_CURRENTS"},"data":[0,0,0,0,0,0,0,0,0,0,0,0,0,0,0,0,0,0,0,0,0,0,0,0,0,0,0,0,0,0,0,0,0,0,0,0,0,0,0,0,0,0,0,0,0,0,0,0,0,0,0,0,0,0,0,0,0,0,0.0076,0.0078,0,0.022,0.0221,0.0223,0.0294,0.0293,0.0293,0.0293,0.0506,0.0512,0.0518,0,0,0,0,0,0,0,0,0,0,0,0,0,-0.0055,-0.0053,0.0076,0.0078,0.008,0.0219,0.0221,0.0223,0.0294,0.0293,0.0293,0.0293,0.0504,0.0511,0.0518,0,0,0,0,0,0,0,0,0,0,0,0,0,0.0037,-0.0053,0.0076,0.0131,0.0137,0.0219,0.0221,0.0224,0.0294,0.0293,0.0293,0.0293,0.0502,0.0511,0.0519,0.0575,0,0,0.0546,0.0549,0,0,0,0,0,0,0,0,0.0032,0.0042,0.0121,0.0127,0.0134,0.0238,0.0253,0.0345,0.0294,0.0235,0.0293,0.0293,0.0423,0.0438,0.0465,0.0585,0.0594,0.0546,0.0552,0.0555,0.0558,0,0,0,0,0,0,0,0.0025,0.0037,0.0134,0.0123,0.0131,0.0176,0.0188,0.0271,0.033,0.024,0.0246,0.026,0.0427,0.0457,0.0471,0.0598,0.0546,0.0554,0.0559,0.0562,0.0749,0.0749,0,0,0,0,0,0,0.0002,0.003,0.013,0.0138,0.0081,0.0178,0.0192,0.0205,0.0328,0.0345,0.026,0.0263,0.0442,0.0461,0.0479,0.0513,0.0555,0.0563,0.0568,0.075,0.0749,0.0749,0,0,0,0,0,0,-0.0002,0.0009,0.0124,0.0087,0.0104,0.018,0.0195,0.0208,0.0234,0.0342,0.0361,0.027,0.0443,0.0467,0.0542,0.0523,0.0567,0.0575,0.075,0.075,0.0749,0.0607,0,0,0,0,0,0,-0.0006,0.0007,0.0005,0.0085,0.0106,0.016,0.0195,0.0211,0.0243,0.0248,0.0357,0.0377,0.0444,0.0529,0.0551,0.0536,0.0582,0.075,0.075,0.0749,0.0612,0.0602,0.0594,0,0,0,0,0,-0.0011,-0.0019,0.0004,0.0016,0.0101,0.0159,0.0174,0.0228,0.0243,0.0251,0.0322,0.0373,0.0541,0.0536,0.0562,0.0549,0.075,0.075,0.0749,0.0617,0.0604,0.0594,0,0,0,0,0,0,-0.0076,-0.001,0.0016,0.0029,0.0085,0.017,0.0179,0.022,0.0283,0.0284,0.0382,0.0408,0.0467,0.0532,0.0523,0.0602,0.0651,0.0655,0.0541,0.053,0.0521,0.049,0.0589,0,0,0,0,0,-0.0092,-0.0084,-0.0006,0.0002,0.0024,0.01,0.0128,0.0167,0.0235,0.0262,0.0341,0.042,0.0488,0.0525,0.0604,0.0652,0.0688,0.0659,0.0649,0.0641,0.0634,0.0645,0.0634,0.0748,0.0748,0.0748,0,0,-0.0113,-0.0079,-0.0072,-0.0012,0.0033,0.0047,0.0116,0.015,0.0163,0.0277,0.0319,0.04,0.0497,0.0546,0.0576,0.0594,0.0631,0.064,0.0631,0.063,0.0643,0.0632,0.0621,0.0747,0.0747,0.0747,0,0,-0.0164,-0.0124,-0.0138,-0.0102,-0.0045,0.0004,0.0007,0.0092,0.0128,0.0189,0.0262,0.0328,0.0444,0.0498,0.054,0.0531,0.0585,0.0553,0.0475,0.0485,0.0475,0.0466,0.0499,0.0495,0.054,0.0539,0.0539,0,-0.0195,-0.0196,-0.0132,-0.0138,-0.012,-0.0027,-0.0036,0.0014,0.0112,0.0138,0.0183,0.0327,0.0418,0.0454,0.0454,0.0507,0.0524,0.0503,0.0468,0.046,0.0454,0.0491,0.0487,0.0533,0.0533,0.0534,0.0535,0,-0.0252,-0.0255,-0.0261,-0.0242,-0.0214,-0.0202,-0.013,-0.0094,-0.0033,0.0025,0.0093,0.0213,0.0293,0.0328,0.0397,0.0394,0.0425,0.0455,0.0484,0.0433,0.0476,0.0475,0.0523,0.0525,0.0527,0.0529,0,0,-0.0306,-0.0303,-0.0305,-0.0316,-0.0266,-0.0246,-0.0235,-0.0185,-0.0175,-0.008,-0.0059,0.006,0.0127,0.0181,0.0265,0.0282,0.0272,0.0339,0.0342,0.035,0.0296,0.0342,0.0347,0.0276,0.0275,0.0274,0.0344,0,-0.0365,-0.0413,-0.0387,-0.0422,-0.0433,-0.0364,-0.0357,-0.0305,-0.0234,-0.0186,-0.0084,-0.0017,0.0066,0.0112,0.0134,0.0257,0.0263,0.0252,0.0365,0.0369,0.0397,0.0345,0.0412,0.048,0.0344,0.0343,0.0343,0,-0.0422,-0.0446,-0.0499,-0.0506,-0.0503,-0.0508,-0.0474,-0.0453,-0.0376,-0.032,-0.0261,-0.0163,-0.009,-0.0018,0.0101,0.0083,0.0169,0.0249,0.0253,0.0345,0.0413,0.0512,0.0485,0.0647,0.0343,0.0343,0.0343,0,-0.0483,-0.0517,-0.0564,-0.0566,-0.0561,-0.0568,-0.0553,-0.0495,-0.0475,-0.0403,-0.0373,-0.0283,-0.0208,-0.0121,0.0069,0.0073,0.0196,0.0227,0.0338,0.0344,0.0451,0.0468,0.0576,0.0269,0.0269,0.0269,0.0268,0,-0.0546,-0.0581,-0.0597,-0.0621,-0.0664,-0.0632,-0.0652,-0.0618,-0.0571,-0.0559,-0.0446,-0.0404,-0.0235,-0.0124,0.0015,0.0184,0.015,0.0316,0.0354,0.0407,0.0418,0.0607,0.0662,0.0271,0.0271,0.027,0.027,0,-0.0604,-0.0616,-0.067,-0.069,-0.0696,-0.0724,-0.0722,-0.0728,-0.0673,-0.0654,-0.0635,-0.0493,-0.0339,-0.0164,0.002,0.0135,0.0386,0.0345,0.0411,0.0454,0.0698,0.0742,0.0857,0.0968,0.0466,0.0467,0.0469,0,-0.0637,-0.0674,-0.0726,-0.076,-0.0772,-0.0802,-0.082,-0.0784,-0.0786,-0.0702,-0.0697,-0.0543,-0.0402,-0.0107,0.0118,0.0347,0.0461,0.0521,0.0539,0.071,0.0788,0.0802,0.0888,0.0637,0.0639,0.0641,0.0643,0,-0.0696,-0.0715,-0.0758,-0.0833,-0.0871,-0.0912,-0.0932,-0.0948,-0.0899,-0.0847,-0.0745,-0.0619,-0.0318,0.0003,0.0297,0.0429,0.0648,0.0568,0.0725,0.0905,0.0947,0.1074,0.061,0.0661,0.0659,0.0658,0.0657,0.0656,-0.0727,-0.0776,-0.0833,-0.0898,-0.0949,-0.1,-0.1012,-0.1008,-0.0981,-0.0833,-0.0746,-0.0414,-0.0032,0.0415,0.054,0.0862,0.0804,0.0984,0.1018,0.1013,0.1129,0.0706,0.0807,0.0806,0.0805,0.0804,0.0804,0,-0.076,-0.0816,-0.089,-0.0964,-0.102,-0.1032,-0.1063,-0.1023,-0.0961,-0.0729,-0.0544,0.0094,0.046,0.08,0.117,0.1332,0.1361,0.1407,0.1464,0.1529,0.1154,0.1175,0.1383,0.1382,0.1382,0.1382,0.1382,0.1382,-0.0779,-0.0856,-0.0898,-0.0996,-0.1042,-0.1067,-0.1068,-0.0976,-0.0793,-0.0336,0.0141,0.0506,0.0971,0.1397,0.1731,0.1755,0.1922,0.1864,0.1954,0.1723,0.1686,0.1652,0.1687,0.1999,0.1999,0.2352,0.2356,0.2358]}],[{"header":{"parameterUnit":"m.s-1","parameterCategory":2,"la1":30.2991,"la2":30.254,"lo1":-89.0895,"lo2":-89.0444,"dy":0.0017,"dx":0.0017,"nx":28,"ny":28,"refTime":"2026-01-01T09:00:00:Z","depth":"2","parameterNumber":2,"parameterNumberName":"U-component_of_CURRENTS"},"data":[0,0,0,0,0,0,0,0,0,0,0,0,0,0,0,0,0,0,0,0,0,0,0,0,0,0,0,0,0,0,0,0,0,0,0,0,0,0,0,0,0,0,0,0,0,0,0,0,0,0,0,0,0,0,0,0,0,0,-0.2129,-0.2129,0,-0.2166,-0.2166,-0.2166,-0.2141,-0.214,-0.2139,-0.2138,-0.2174,-0.2176,-0.2178,0,0,0,0,0,0,0,0,0,0,0,0,0,-0.2051,-0.2053,-0.2129,-0.213,-0.213,-0.2166,-0.2166,-0.2166,-0.2141,-0.214,-0.2139,-0.2137,-0.2174,-0.2176,-0.2178,0,0,0,0,0,0,0,0,0,0,0,0,0,-0.2085,-0.2053,-0.2129,-0.2123,-0.2122,-0.2166,-0.2166,-0.2167,-0.2141,-0.214,-0.2138,-0.2137,-0.2173,-0.2176,-0.2179,-0.2228,0,0,-0.2188,-0.2189,0,0,0,0,0,0,0,0,-0.2083,-0.2088,-0.2123,-0.2123,-0.2123,-0.2148,-0.2152,-0.2188,-0.2142,-0.2133,-0.2138,-0.2136,-0.2168,-0.2171,-0.2179,-0.223,-0.2231,-0.2188,-0.219,-0.2191,-0.2192,0,0,0,0,0,0,0,-0.2081,-0.2086,-0.2142,-0.2124,-0.2124,-0.2123,-0.2126,-0.2159,-0.2158,-0.2134,-0.2132,-0.2139,-0.2167,-0.2177,-0.218,-0.2232,-0.2188,-0.219,-0.2192,-0.2193,-0.2291,-0.2292,0,0,0,0,0,0,-0.208,-0.2084,-0.2141,-0.2143,-0.21,-0.2126,-0.2129,-0.2141,-0.2157,-0.2159,-0.214,-0.2137,-0.2173,-0.2177,-0.2181,-0.2219,-0.2191,-0.2194,-0.2195,-0.229,-0.2292,-0.2292,0,0,0,0,0,0,-0.2079,-0.2085,-0.214,-0.2115,-0.2122,-0.2129,-0.2142,-0.2142,-0.215,-0.2162,-0.2163,-0.2147,-0.2171,-0.2177,-0.221,-0.2221,-0.2195,-0.2198,-0.2289,-0.2291,-0.2292,-0.2308,0,0,0,0,0,0,-0.2076,-0.2085,-0.2092,-0.2115,-0.2123,-0.2164,-0.2144,-0.2144,-0.2157,-0.2154,-0.2169,-0.2171,-0.2171,-0.2205,-0.2213,-0.2224,-0.22,-0.2288,-0.229,-0.2292,-0.2306,-0.231,-0.2313,0,0,0,0,0,-0.2074,-0.2091,-0.2092,-0.2099,-0.2134,-0.2165,-0.2169,-0.2167,-0.2159,-0.2167,-0.2177,-0.217,-0.222,-0.2209,-0.2217,-0.223,-0.2288,-0.229,-0.2291,-0.2305,-0.2309,-0.2312,0,0,0,0,0,0,-0.2057,-0.2091,-0.2092,-0.2117,-0.2138,-0.2161,-0.217,-0.2175,-0.2191,-0.2187,-0.2192,-0.2195,-0.2223,-0.2232,-0.222,-0.2262,-0.2249,-0.2253,-0.2257,-0.2261,-0.2264,-0.2259,-0.2202,0,0,0,0,0,-0.206,-0.2079,-0.211,-0.2127,-0.214,-0.2158,-0.217,-0.2175,-0.2193,-0.2198,-0.221,-0.2223,-0.2241,-0.2254,-0.227,-0.2308,-0.2287,-0.2318,-0.2321,-0.2323,-0.2325,-0.2309,-0.231,-0.2299,-0.2299,-0.2299,0,0,-0.2056,-0.2078,-0.2087,-0.2125,-0.2139,-0.2167,-0.216,-0.2185,-0.2204,-0.2203,-0.223,-0.2238,-0.2253,-0.2281,-0.2294,-0.2289,-0.2313,-0.2326,-0.2328,-0.2328,-0.2311,-0.2311,-0.2312,-0.23,-0.23,-0.23,0,0,-0.206,-0.2081,-0.2098,-0.2124,-0.2156,-0.2173,-0.2183,-0.2214,-0.2221,-0.2259,-0.2252,-0.227,-0.2307,-0.2312,-0.2321,-0.2358,-0.2328,-0.236,-0.2377,-0.2361,-0.2361,-0.2361,-0.2321,-0.2317,-0.2364,-0.2364,-0.2365,0,-0.2052,-0.2081,-0.2107,-0.2136,-0.2156,-0.2178,-0.2203,-0.2226,-0.2261,-0.2272,-0.2267,-0.2308,-0.2321,-0.2346,-0.2353,-0.2365,-0.2338,-0.236,-0.2363,-0.2363,-0.2363,-0.2321,-0.2317,-0.2365,-0.2365,-0.2365,-0.2365,0,-0.2071,-0.2098,-0.2113,-0.2155,-0.2183,-0.2209,-0.2247,-0.2272,-0.2287,-0.2304,-0.2332,-0.2347,-0.2366,-0.2373,-0.2378,-0.2387,-0.2361,-0.2364,-0.2349,-0.2365,-0.232,-0.2315,-0.2367,-0.2367,-0.2366,-0.2366,0,0,-0.2033,-0.211,-0.2111,-0.2135,-0.2195,-0.2217,-0.2262,-0.2301,-0.232,-0.235,-0.2366,-0.24,-0.2397,-0.2407,-0.2409,-0.2403,-0.2377,-0.2384,-0.2383,-0.2335,-0.2316,-0.2206,-0.219,-0.2374,-0.2374,-0.2374,-0.2278,0,-0.2032,-0.2083,-0.2126,-0.2169,-0.2197,-0.2244,-0.2281,-0.2322,-0.235,-0.2373,-0.239,-0.2406,-0.2413,-0.2415,-0.2413,-0.2392,-0.2368,-0.2401,-0.2316,-0.2313,-0.2207,-0.2183,-0.2022,-0.1916,-0.2274,-0.2273,-0.2272,0,-0.2027,-0.2064,-0.2107,-0.2177,-0.2192,-0.2221,-0.2275,-0.2313,-0.2361,-0.2381,-0.2404,-0.2414,-0.2425,-0.2418,-0.2384,-0.2401,-0.2358,-0.2334,-0.2329,-0.2219,-0.2195,-0.1963,-0.1893,-0.2264,-0.2264,-0.2265,-0.2266,0,-0.1972,-0.2047,-0.2077,-0.2102,-0.2185,-0.2207,-0.2246,-0.2305,-0.2331,-0.2376,-0.2386,-0.2409,-0.2399,-0.2377,-0.2337,-0.2357,-0.2271,-0.2294,-0.2148,-0.2139,-0.1982,-0.1959,-0.2246,-0.2246,-0.2246,-0.2247,-0.2247,0,-0.1951,-0.1971,-0.2052,-0.2067,-0.2097,-0.217,-0.2198,-0.2246,-0.23,-0.2316,-0.2373,-0.2371,-0.2385,-0.2347,-0.2321,-0.2203,-0.2254,-0.2133,-0.2105,-0.1981,-0.196,-0.2256,-0.2258,-0.2243,-0.2244,-0.2245,-0.2245,0,-0.188,-0.1939,-0.1973,-0.2051,-0.2072,-0.2088,-0.216,-0.2176,-0.2244,-0.2264,-0.2275,-0.2322,-0.2264,-0.2246,-0.2189,-0.215,-0.2076,-0.2015,-0.1854,-0.1808,-0.196,-0.1965,-0.1853,-0.1848,-0.1844,-0.1841,-0.1838,0,-0.1849,-0.186,-0.1933,-0.1942,-0.1971,-0.2011,-0.2031,-0.2125,-0.2149,-0.2221,-0.2215,-0.2188,-0.2126,-0.2002,-0.1912,-0.1801,-0.1918,-0.162,-0.1638,-0.1934,-0.1918,-0.1929,-0.1939,-0.1431,-0.1425,-0.142,-0.1416,0,-0.1773,-0.1798,-0.1822,-0.1843,-0.1864,-0.1892,-0.1935,-0.1948,-0.2048,-0.2065,-0.2058,-0.2014,-0.1883,-0.1689,-0.1555,-0.1493,-0.1635,-0.1516,-0.1851,-0.156,-0.1529,-0.1517,-0.1541,-0.1373,-0.1377,-0.1381,-0.1383,-0.1385,-0.1697,-0.1691,-0.1717,-0.1723,-0.1747,-0.1747,-0.1719,-0.1771,-0.178,-0.1778,-0.185,-0.1736,-0.1657,-0.1353,-0.1236,-0.1157,-0.1284,-0.1262,-0.1279,-0.1302,-0.1274,-0.1239,-0.1022,-0.1024,-0.1026,-0.1027,-0.1029,0,-0.1595,-0.1595,-0.1593,-0.1592,-0.1557,-0.1617,-0.1626,-0.1571,-0.152,-0.1572,-0.1539,-0.1316,-0.1142,-0.1076,-0.0858,-0.0799,-0.0824,-0.0789,-0.0836,-0.0877,-0.0914,-0.0872,-0.0509,-0.0508,-0.0507,-0.0506,0,0,-0.154,-0.1498,-0.1493,-0.1397,-0.1386,-0.1295,-0.1266,-0.1213,-0.1218,-0.1146,-0.1107,-0.1171,-0.1102,-0.0853,-0.0744,-0.0606,-0.0762,-0.0571,-0.0984,-0.1088,-0.1125,-0.117,-0.1147,0,0,0,0,0]},{"header":{"parameterUnit":"m.s-1","parameterCategory":2,"la1":30.2991,"la2":30.254,"lo1":-89.0895,"lo2":-89.0444,"dy":0.0017,"dx":0.0017,"nx":28,"ny":28,"refTime":"2026-01-01T09:00:00:Z","depth":"2","parameterNumber":3,"parameterNumberName":"V-component_of_CURRENTS"},"data":[0,0,0,0,0,0,0,0,0,0,0,0,0,0,0,0,0,0,0,0,0,0,0,0,0,0,0,0,0,0,0,0,0,0,0,0,0,0,0,0,0,0,0,0,0,0,0,0,0,0,0,0,0,0,0,0,0,0,-0.0243,-0.0243,0,-0.0223,-0.0222,-0.0222,-0.0188,-0.0187,-0.0187,-0.0186,-0.0128,-0.0127,-0.0126,0,0,0,0,0,0,0,0,0,0,0,0,0,-0.0227,-0.0228,-0.0243,-0.0243,-0.0243,-0.0223,-0.0222,-0.0222,-0.0188,-0.0187,-0.0187,-0.0186,-0.0128,-0.0127,-0.0126,0,0,0,0,0,0,0,0,0,0,0,0,0,-0.0222,-0.0228,-0.0243,-0.0224,-0.0222,-0.0223,-0.0222,-0.0222,-0.0188,-0.0187,-0.0186,-0.0186,-0.0129,-0.0127,-0.0125,-0.0131,0,0,-0.0121,-0.012,0,0,0,0,0,0,0,0,-0.0223,-0.0223,-0.0227,-0.0225,-0.0223,-0.0208,-0.0195,-0.019,-0.0188,-0.02,-0.0186,-0.0185,-0.0153,-0.0149,-0.0146,-0.0128,-0.0126,-0.012,-0.0119,-0.0119,-0.0118,0,0,0,0,0,0,0,-0.0223,-0.0223,-0.0234,-0.0227,-0.0225,-0.0208,-0.0207,-0.0194,-0.0179,-0.0199,-0.0196,-0.0196,-0.0151,-0.0147,-0.0144,-0.0125,-0.012,-0.0119,-0.0118,-0.0117,-0.0072,-0.0072,0,0,0,0,0,0,-0.023,-0.0224,-0.0234,-0.0233,-0.0223,-0.021,-0.0208,-0.0213,-0.018,-0.0175,-0.0197,-0.0195,-0.015,-0.0146,-0.0142,-0.0132,-0.0119,-0.0117,-0.0116,-0.0072,-0.0072,-0.0072,0,0,0,0,0,0,-0.023,-0.0232,-0.0235,-0.0228,-0.0228,-0.0211,-0.0217,-0.0213,-0.0206,-0.0179,-0.0173,-0.0194,-0.015,-0.0144,-0.0134,-0.013,-0.0117,-0.0115,-0.0073,-0.0072,-0.0072,-0.0122,0,0,0,0,0,0,-0.023,-0.0232,-0.0238,-0.0229,-0.0229,-0.024,-0.0217,-0.0213,-0.0208,-0.0204,-0.0175,-0.0169,-0.0149,-0.0136,-0.0132,-0.0127,-0.0114,-0.0073,-0.0073,-0.0072,-0.012,-0.0123,-0.0125,0,0,0,0,0,-0.023,-0.0248,-0.0238,-0.024,-0.0238,-0.0241,-0.0239,-0.0223,-0.0208,-0.0212,-0.0191,-0.0169,-0.0129,-0.0136,-0.0131,-0.0125,-0.0073,-0.0073,-0.0072,-0.0119,-0.0122,-0.0125,0,0,0,0,0,0,-0.0248,-0.0246,-0.0235,-0.0252,-0.0247,-0.0236,-0.0239,-0.0226,-0.0213,-0.0207,-0.0177,-0.0171,-0.0159,-0.0135,-0.0143,-0.0108,-0.0093,-0.0092,-0.013,-0.0133,-0.0136,-0.0136,-0.0113,0,0,0,0,0,-0.0255,-0.0264,-0.0257,-0.0269,-0.0268,-0.0252,-0.0251,-0.024,-0.0228,-0.0221,-0.02,-0.0172,-0.0154,-0.014,-0.0123,-0.011,-0.0072,-0.0098,-0.01,-0.0103,-0.0098,-0.0039,-0.0036,-0.007,-0.007,-0.007,0,0,-0.0266,-0.0265,-0.027,-0.0273,-0.0266,-0.0273,-0.0249,-0.0252,-0.0249,-0.0218,-0.0208,-0.0188,-0.0155,-0.0142,-0.0132,-0.012,-0.0074,-0.0102,-0.0105,-0.0098,-0.0038,-0.0035,-0.0032,-0.007,-0.007,-0.007,0,0,-0.0298,-0.0291,-0.0309,-0.0306,-0.0301,-0.029,-0.0292,-0.028,-0.0265,-0.0262,-0.0232,-0.0208,-0.0186,-0.0154,-0.0137,-0.0141,-0.0096,-0.0133,-0.014,-0.0084,-0.008,-0.0077,-0.0034,-0.0026,-0.0127,-0.0127,-0.0127,0,-0.0311,-0.0333,-0.0315,-0.0329,-0.033,-0.03,-0.0318,-0.03,-0.0284,-0.0271,-0.0264,-0.0213,-0.0189,-0.0155,-0.0156,-0.0146,-0.0112,-0.0136,-0.0087,-0.0083,-0.0079,-0.0035,-0.0026,-0.0129,-0.0129,-0.0129,-0.0129,0,-0.0354,-0.0367,-0.0378,-0.0381,-0.0378,-0.039,-0.0364,-0.0353,-0.0332,-0.031,-0.0278,-0.0242,-0.0207,-0.0193,-0.018,-0.0134,-0.0121,-0.0106,-0.0083,-0.0078,-0.0033,-0.0022,-0.0133,-0.0132,-0.0131,-0.013,0,0,-0.0395,-0.0408,-0.0411,-0.0423,-0.0408,-0.0415,-0.0401,-0.0384,-0.0372,-0.0336,-0.0315,-0.0273,-0.0241,-0.0217,-0.0184,-0.0133,-0.0081,-0.011,-0.0106,-0.0074,0.0037,0.0062,0.0076,-0.0058,-0.0057,-0.0055,0.0052,0,-0.0435,-0.0481,-0.0467,-0.0498,-0.0518,-0.048,-0.0472,-0.0443,-0.0409,-0.0378,-0.0311,-0.0285,-0.0251,-0.0237,-0.0178,-0.011,-0.0054,-0.0112,0.0033,0.0038,0.0055,0.0089,0.01,0.0199,0.0063,0.0065,0.0066,0,-0.0483,-0.0507,-0.0552,-0.0562,-0.0565,-0.057,-0.0548,-0.0535,-0.0469,-0.044,-0.038,-0.033,-0.0251,-0.0227,-0.0082,-0.0122,-0.0045,0.0014,0.002,0.0072,0.0084,0.0176,0.0223,0.0084,0.0082,0.0081,0.008,0,-0.0533,-0.0565,-0.0605,-0.0609,-0.0611,-0.0614,-0.0606,-0.0556,-0.0543,-0.0473,-0.0454,-0.0349,-0.0298,-0.0184,-0.0058,-0.0068,0.0102,0.0106,0.0206,0.0208,0.0262,0.0265,0.0217,0.0217,0.0217,0.0217,0.0216,0,-0.0587,-0.0617,-0.0633,-0.0656,-0.0693,-0.0667,-0.0681,-0.0652,-0.0604,-0.0581,-0.0489,-0.0435,-0.0284,-0.0169,-0.0057,0.0112,0.0112,0.0218,0.0247,0.0243,0.0244,0.0179,0.0173,0.0221,0.022,0.0219,0.0218,0,-0.0636,-0.0648,-0.0696,-0.0715,-0.0721,-0.0746,-0.0744,-0.0746,-0.0691,-0.0655,-0.0635,-0.0492,-0.033,-0.0178,0.0015,0.0114,0.0264,0.0322,0.03,0.0325,0.033,0.032,0.0449,0.0451,0.0453,0.0454,0.0456,0,-0.0666,-0.0698,-0.0746,-0.0778,-0.0789,-0.0817,-0.0832,-0.0796,-0.0788,-0.0677,-0.0659,-0.0496,-0.0345,-0.0055,0.0136,0.0346,0.0327,0.0462,0.045,0.0343,0.0358,0.0346,0.0334,0.0499,0.05,0.0502,0.0503,0,-0.0717,-0.0735,-0.0774,-0.0843,-0.0877,-0.0913,-0.0925,-0.0932,-0.0868,-0.0794,-0.0648,-0.0509,-0.0223,0.0046,0.0294,0.0409,0.0426,0.0492,0.0415,0.0429,0.0397,0.0408,0.0395,0.0513,0.0512,0.0511,0.0511,0.051,-0.0745,-0.079,-0.0842,-0.0901,-0.0948,-0.0988,-0.0998,-0.0972,-0.092,-0.0769,-0.0633,-0.0376,-0.0143,0.0252,0.0415,0.0543,0.0539,0.0586,0.058,0.0573,0.055,0.0522,0.0657,0.0657,0.0657,0.0656,0.0656,0,-0.0776,-0.0827,-0.0893,-0.0962,-0.1012,-0.1023,-0.1039,-0.0997,-0.0903,-0.0701,-0.0497,-0.0211,0.009,0.0292,0.0529,0.0671,0.0642,0.0674,0.0624,0.0615,0.0607,0.0581,0.0699,0.0699,0.0699,0.0699,0,0,-0.0794,-0.0864,-0.0901,-0.0991,-0.1035,-0.1059,-0.1057,-0.0958,-0.0799,-0.0568,-0.0359,-0.009,0.0164,0.0332,0.0508,0.0623,0.0579,0.0621,0.0583,0.0502,0.0492,0.0563,0.0516,0,0,0,0,0]}],[{"header":{"parameterUnit":"m.s-1","parameterCategory":2,"la1":30.2991,"la2":30.254,"lo1":-89.0895,"lo2":-89.0444,"dy":0.0017,"dx":0.0017,"nx":28,"ny":28,"refTime":"2026-01-01T09:00:00:Z","depth":"4","parameterNumber":2,"parameterNumberName":"U-component_of_CURRENTS"},"data":[0,0,0,0,0,0,0,0,0,0,0,0,0,0,0,0,0,0,0,0,0,0,0,0,0,0,0,0,0,0,0,0,0,0,0,0,0,0,0,0,0,0,0,0,0,0,0,0,0,0,0,0,0,0,0,0,0,0,-0.1479,-0.148,0,-0.1542,-0.1542,-0.1543,-0.1573,-0.1573,-0.1573,-0.1573,-0.1665,-0.1667,-0.1669,0,0,0,0,0,0,0,0,0,0,0,0,0,-0.1408,-0.1408,-0.1479,-0.148,-0.1481,-0.1542,-0.1543,-0.1543,-0.1573,-0.1573,-0.1573,-0.1573,-0.1664,-0.1667,-0.167,0,0,0,0,0,0,0,0,0,0,0,0,0,-0.145,-0.1409,-0.1479,-0.1504,-0.1506,-0.1542,-0.1543,-0.1544,-0.1573,-0.1573,-0.1573,-0.1573,-0.1663,-0.1666,-0.167,-0.1691,0,0,-0.1681,-0.1683,0,0,0,0,0,0,0,0,-0.1448,-0.1453,-0.1499,-0.1502,-0.1505,-0.155,-0.1551,-0.1595,-0.1573,-0.1547,-0.1573,-0.1573,-0.163,-0.1636,-0.1646,-0.1695,-0.1699,-0.1681,-0.1683,-0.1685,-0.1686,0,0,0,0,0,0,0,-0.1445,-0.1451,-0.1503,-0.15,-0.1504,-0.1519,-0.1525,-0.1559,-0.1587,-0.1549,-0.1552,-0.156,-0.1631,-0.1642,-0.1648,-0.1701,-0.1681,-0.1684,-0.1687,-0.1688,-0.1821,-0.1822,0,0,0,0,0,0,-0.1438,-0.1448,-0.1501,-0.1505,-0.1477,-0.152,-0.1527,-0.1535,-0.1586,-0.1594,-0.156,-0.1561,-0.1636,-0.1644,-0.1652,-0.1733,-0.1685,-0.1688,-0.169,-0.1819,-0.1821,-0.1822,0,0,0,0,0,0,-0.1436,-0.1442,-0.1499,-0.1478,-0.1487,-0.1521,-0.1531,-0.1536,-0.1571,-0.1594,-0.1602,-0.1591,-0.1637,-0.1647,-0.1705,-0.1734,-0.169,-0.1693,-0.1818,-0.182,-0.1822,-0.1861,0,0,0,0,0,0,-0.1433,-0.1441,-0.1457,-0.1478,-0.1488,-0.1535,-0.1531,-0.1538,-0.1575,-0.1577,-0.1623,-0.163,-0.1637,-0.1699,-0.1708,-0.1738,-0.1696,-0.1816,-0.1819,-0.1821,-0.1858,-0.1864,-0.1869,0,0,0,0,0,-0.1431,-0.1449,-0.1458,-0.1465,-0.1505,-0.1536,-0.1543,-0.1567,-0.1576,-0.1597,-0.163,-0.163,-0.1721,-0.1704,-0.1714,-0.1746,-0.1815,-0.1818,-0.1821,-0.1855,-0.1862,-0.1869,0,0,0,0,0,0,-0.1427,-0.1455,-0.1464,-0.1491,-0.1519,-0.1542,-0.1567,-0.1582,-0.1624,-0.1637,-0.1654,-0.1664,-0.1723,-0.1732,-0.1712,-0.179,-0.1766,-0.1771,-0.1788,-0.1796,-0.1801,-0.1798,-0.1699,0,0,0,0,0,-0.1433,-0.1456,-0.1481,-0.1506,-0.1522,-0.155,-0.1571,-0.1589,-0.1622,-0.1641,-0.1673,-0.1707,-0.174,-0.1766,-0.1795,-0.1846,-0.1829,-0.1871,-0.1876,-0.1881,-0.1885,-0.1889,-0.1895,-0.1832,-0.1832,-0.1832,0,0,-0.1439,-0.1458,-0.1472,-0.1508,-0.1532,-0.1565,-0.1564,-0.1604,-0.1639,-0.1646,-0.1712,-0.1733,-0.1758,-0.1809,-0.1836,-0.1824,-0.1888,-0.1885,-0.1889,-0.189,-0.1893,-0.1899,-0.1904,-0.1834,-0.1834,-0.1834,0,0,-0.1457,-0.148,-0.1504,-0.1532,-0.1575,-0.1593,-0.161,-0.1651,-0.1679,-0.1739,-0.1748,-0.1791,-0.1848,-0.1867,-0.1883,-0.1941,-0.1917,-0.1951,-0.1982,-0.1986,-0.1991,-0.1995,-0.1965,-0.1966,-0.1955,-0.1955,-0.1955,0,-0.1465,-0.1495,-0.1518,-0.155,-0.1579,-0.1609,-0.1645,-0.1678,-0.1735,-0.1762,-0.1768,-0.185,-0.1875,-0.1926,-0.1944,-0.1955,-0.1938,-0.1953,-0.1992,-0.1996,-0.1999,-0.1967,-0.1968,-0.1957,-0.1957,-0.1957,-0.1956,0,-0.1491,-0.153,-0.1549,-0.1598,-0.1633,-0.167,-0.1714,-0.1759,-0.1796,-0.1824,-0.189,-0.192,-0.1964,-0.198,-0.1984,-0.2025,-0.1997,-0.1995,-0.197,-0.2008,-0.1972,-0.1972,-0.196,-0.1959,-0.1959,-0.1958,0,0,-0.1464,-0.155,-0.1559,-0.1593,-0.1662,-0.1689,-0.1757,-0.1814,-0.1853,-0.1911,-0.1956,-0.2018,-0.2028,-0.2046,-0.2055,-0.2064,-0.2072,-0.2044,-0.2043,-0.2005,-0.2053,-0.1894,-0.1878,-0.2074,-0.2075,-0.2076,-0.2011,0,-0.1477,-0.1542,-0.1586,-0.1655,-0.1689,-0.1748,-0.1802,-0.1862,-0.1911,-0.1963,-0.2,-0.2047,-0.2054,-0.2074,-0.2089,-0.2081,-0.2077,-0.2087,-0.203,-0.2027,-0.1876,-0.1875,-0.2078,-0.2011,-0.2011,-0.2011,-0.2011,0,-0.1476,-0.1523,-0.1591,-0.168,-0.1701,-0.1751,-0.1836,-0.189,-0.1968,-0.2005,-0.2059,-0.2082,-0.2122,-0.2112,-0.2117,-0.2122,-0.2092,-0.2075,-0.2072,-0.1911,-0.1869,-0.1971,-0.201,-0.201,-0.201,-0.201,-0.201,0,-0.1423,-0.1521,-0.1577,-0.1608,-0.1713,-0.1761,-0.1818,-0.1904,-0.1947,-0.2029,-0.2056,-0.2111,-0.2126,-0.2125,-0.2097,-0.2112,-0.2068,-0.2082,-0.1906,-0.1894,-0.204,-0.2037,-0.2069,-0.2069,-0.2069,-0.2069,-0.2069,0,-0.1397,-0.1443,-0.1561,-0.1587,-0.1653,-0.1738,-0.1807,-0.1873,-0.1955,-0.199,-0.2069,-0.2082,-0.213,-0.2113,-0.2094,-0.198,-0.2064,-0.1898,-0.1866,-0.2056,-0.2055,-0.2038,-0.2036,-0.2067,-0.2067,-0.2068,-0.2068,0,-0.1322,-0.1404,-0.147,-0.1589,-0.1629,-0.1674,-0.179,-0.1827,-0.192,-0.1965,-0.1989,-0.2057,-0.2022,-0.2025,-0.2,-0.1941,-0.1874,-0.181,-0.1982,-0.1964,-0.1699,-0.17,-0.1614,-0.1608,-0.1602,-0.1598,-0.1594,0,-0.1287,-0.1316,-0.1448,-0.1483,-0.1541,-0.1624,-0.1671,-0.1791,-0.1827,-0.1927,-0.1926,-0.1932,-0.1951,-0.1774,-0.1809,-0.1725,-0.1706,-0.1667,-0.1713,-0.1674,-0.1653,-0.1662,-0.1669,-0.1586,-0.1585,-0.1583,-0.1582,0,-0.1211,-0.127,-0.1322,-0.1395,-0.1458,-0.152,-0.16,-0.161,-0.173,-0.183,-0.1797,-0.1764,-0.1703,-0.1664,-0.1584,-0.1545,-0.1701,-0.1613,-0.1624,-0.1667,-0.164,-0.1626,-0.1639,-0.1564,-0.1567,-0.1568,-0.1569,0,-0.115,-0.1165,-0.1237,-0.1286,-0.136,-0.1385,-0.1448,-0.1478,-0.1526,-0.1643,-0.1624,-0.1632,-0.1684,-0.1566,-0.1514,-0.1434,-0.1424,-0.1401,-0.1424,-0.1444,-0.1417,-0.136,-0.1155,0,0,0,0,0,-0.1082,-0.1083,-0.1119,-0.1168,-0.1233,-0.1274,-0.1382,-0.1448,-0.1564,-0.149,-0.1553,-0.1491,-0.1403,-0.1418,-0.1293,-0.1427,-0.1426,-0.1279,-0.1413,-0.1464,-0.1485,-0.1467,0,0,0,0,0,0,-0.1037,-0.1067,-0.1076,-0.1052,-0.1057,-0.1116,-0.1177,-0.1262,-0.1237,-0.1353,-0.1302,-0.1391,-0.1314,-0.1422,-0.1253,-0.1253,-0.1306,-0.1294,-0.129,-0.1452,-0.1471,-0.1488,-0.1477,0,0,0,0,0]},{"header":{"parameterUnit":"m.s-1","parameterCategory":2,"la1":30.2991,"la2":30.254,"lo1":-89.0895,"lo2":-89.0444,"dy":0.0017,"dx":0.0017,"nx":28,"ny":28,"refTime":"2026-01-01T09:00:00:Z","depth":"4","parameterNumber":3,"parameterNumberName":"V-component_of_CURRENTS"},"data":[0,0,0,0,0,0,0,0,0,0,0,0,0,0,0,0,0,0,0,0,0,0,0,0,0,0,0,0,0,0,0,0,0,0,0,0,0,0,0,0,0,0,0,0,0,0,0,0,0,0,0,0,0,0,0,0,0,0,-0.0234,-0.0234,0,-0.0229,-0.0229,-0.0229,-0.0208,-0.0207,-0.0207,-0.0206,-0.0176,-0.0176,-0.0175,0,0,0,0,0,0,0,0,0,0,0,0,0,-0.0204,-0.0205,-0.0234,-0.0234,-0.0234,-0.0229,-0.0229,-0.0229,-0.0208,-0.0207,-0.0207,-0.0206,-0.0176,-0.0176,-0.0175,0,0,0,0,0,0,0,0,0,0,0,0,0,-0.0209,-0.0205,-0.0234,-0.0223,-0.0222,-0.0229,-0.0229,-0.0229,-0.0208,-0.0207,-0.0206,-0.0206,-0.0176,-0.0176,-0.0175,-0.0185,0,0,-0.0173,-0.0173,0,0,0,0,0,0,0,0,-0.0209,-0.021,-0.0225,-0.0224,-0.0223,-0.0219,-0.0207,-0.0213,-0.0208,-0.0213,-0.0206,-0.0205,-0.0189,-0.0187,-0.0187,-0.0183,-0.0182,-0.0173,-0.0173,-0.0173,-0.0172,0,0,0,0,0,0,0,-0.0209,-0.021,-0.0231,-0.0225,-0.0224,-0.0212,-0.0212,-0.0208,-0.0203,-0.0212,-0.0211,-0.0212,-0.0188,-0.0188,-0.0186,-0.0181,-0.0173,-0.0173,-0.0172,-0.0172,-0.0162,-0.0162,0,0,0,0,0,0,-0.0213,-0.021,-0.0232,-0.0231,-0.0215,-0.0213,-0.0213,-0.022,-0.0204,-0.0201,-0.0212,-0.0211,-0.0189,-0.0187,-0.0185,-0.0185,-0.0173,-0.0172,-0.0172,-0.0162,-0.0162,-0.0162,0,0,0,0,0,0,-0.0212,-0.0215,-0.0232,-0.0221,-0.0222,-0.0214,-0.0223,-0.0221,-0.022,-0.0204,-0.0201,-0.0213,-0.0189,-0.0186,-0.0184,-0.0184,-0.0172,-0.0171,-0.0162,-0.0162,-0.0162,-0.0192,0,0,0,0,0,0,-0.0211,-0.0215,-0.0224,-0.0221,-0.0223,-0.0241,-0.0223,-0.0221,-0.0222,-0.022,-0.0204,-0.0201,-0.0188,-0.0185,-0.0184,-0.0183,-0.0171,-0.0162,-0.0162,-0.0162,-0.0191,-0.0193,-0.0195,0,0,0,0,0,-0.021,-0.0228,-0.0224,-0.0227,-0.0235,-0.0241,-0.0241,-0.0232,-0.0222,-0.0228,-0.0216,-0.0201,-0.0185,-0.0186,-0.0183,-0.0183,-0.0162,-0.0162,-0.0162,-0.019,-0.0193,-0.0195,0,0,0,0,0,0,-0.0222,-0.0228,-0.0223,-0.0242,-0.0243,-0.0238,-0.0244,-0.0236,-0.0232,-0.0228,-0.0209,-0.0206,-0.0204,-0.0191,-0.0192,-0.0179,-0.0168,-0.0168,-0.019,-0.0192,-0.0195,-0.0192,-0.017,0,0,0,0,0,-0.0229,-0.0242,-0.0242,-0.0257,-0.0258,-0.0251,-0.0252,-0.0247,-0.0242,-0.0239,-0.0228,-0.0213,-0.0204,-0.0197,-0.019,-0.0187,-0.0149,-0.0182,-0.0184,-0.0186,-0.0183,-0.012,-0.0116,-0.0163,-0.0163,-0.0163,0,0,-0.0238,-0.0242,-0.025,-0.026,-0.0258,-0.0266,-0.025,-0.0256,-0.0258,-0.0237,-0.0237,-0.0226,-0.0207,-0.0203,-0.02,-0.0191,-0.0155,-0.0187,-0.0188,-0.0183,-0.012,-0.0115,-0.0111,-0.0163,-0.0163,-0.0163,0,0,-0.0261,-0.0265,-0.0282,-0.0284,-0.0286,-0.0282,-0.0285,-0.0282,-0.0275,-0.0279,-0.0258,-0.0243,-0.0239,-0.0215,-0.0204,-0.0213,-0.0172,-0.0214,-0.0218,-0.0158,-0.0153,-0.0148,-0.01,-0.009,-0.0209,-0.0209,-0.0209,0,-0.0271,-0.0293,-0.0288,-0.0301,-0.0306,-0.029,-0.0305,-0.0298,-0.0293,-0.0285,-0.0283,-0.0253,-0.024,-0.0215,-0.022,-0.0216,-0.018,-0.0211,-0.0159,-0.0154,-0.0149,-0.01,-0.0089,-0.0211,-0.0211,-0.021,-0.021,0,-0.0302,-0.0319,-0.0329,-0.034,-0.0343,-0.0355,-0.0343,-0.0341,-0.0332,-0.0317,-0.0298,-0.0274,-0.0251,-0.0245,-0.0239,-0.0198,-0.0185,-0.0173,-0.0152,-0.0145,-0.0095,-0.0083,-0.0213,-0.0212,-0.0212,-0.0211,0,0,-0.0328,-0.0349,-0.0353,-0.0366,-0.0366,-0.0375,-0.0371,-0.0364,-0.0357,-0.0338,-0.032,-0.0297,-0.0273,-0.0258,-0.0236,-0.0187,-0.0126,-0.017,-0.0166,-0.012,0.0003,-0.0,0.0013,-0.0104,-0.0102,-0.01,0.0021,0,-0.0356,-0.0396,-0.0393,-0.0424,-0.0443,-0.0423,-0.0424,-0.0408,-0.0388,-0.0366,-0.0316,-0.0299,-0.0279,-0.027,-0.0215,-0.0154,-0.0096,-0.016,-0.0012,-0.0007,-0.0009,0.0026,-0.0094,0.003,0.0033,0.0035,0.0036,0,-0.0387,-0.0412,-0.0452,-0.0472,-0.0477,-0.0489,-0.0482,-0.0478,-0.043,-0.0411,-0.0363,-0.0325,-0.0258,-0.0244,-0.0106,-0.0149,-0.0076,-0.002,-0.0013,0.0004,0.0012,0.0024,0.0058,0.0056,0.0055,0.0053,0.0052,0,-0.0417,-0.0452,-0.0489,-0.0497,-0.0513,-0.0522,-0.0526,-0.0494,-0.0487,-0.0434,-0.0416,-0.0327,-0.0282,-0.0177,-0.0067,-0.0082,0.0091,0.0089,0.0164,0.0164,0.0142,0.0136,0.0203,0.0202,0.0202,0.0202,0.0201,0,-0.0448,-0.0479,-0.0511,-0.0532,-0.0572,-0.0562,-0.0583,-0.0566,-0.0532,-0.0509,-0.0442,-0.0388,-0.0261,-0.0152,-0.0055,0.0092,0.011,0.0175,0.0203,0.0125,0.0115,0.015,0.0143,0.0206,0.0205,0.0204,0.0204,0,-0.0472,-0.0494,-0.0542,-0.0576,-0.059,-0.0618,-0.0635,-0.064,-0.0601,-0.0564,-0.0547,-0.0422,-0.027,-0.0141,0.0041,0.0108,0.0242,0.0292,0.0199,0.0216,0.0272,0.0261,0.0389,0.0391,0.0391,0.0392,0.0393,0,-0.0486,-0.0515,-0.0581,-0.0616,-0.0637,-0.0676,-0.0698,-0.068,-0.067,-0.057,-0.0544,-0.0396,-0.0299,-0.0029,0.0092,0.0285,0.0305,0.0361,0.0317,0.0282,0.0295,0.0283,0.0271,0.0394,0.0395,0.0395,0.0395,0,-0.051,-0.0539,-0.0579,-0.0656,-0.07,-0.0741,-0.0762,-0.0758,-0.0707,-0.0673,-0.0504,-0.0358,-0.0181,0.0004,0.0149,0.0282,0.0312,0.0371,0.037,0.0329,0.0289,0.0299,0.0286,0.0398,0.0398,0.0397,0.0397,0,-0.0523,-0.0561,-0.062,-0.0681,-0.0745,-0.0781,-0.0793,-0.0746,-0.0719,-0.0593,-0.0526,-0.0326,-0.02,0.0006,0.0144,0.0267,0.029,0.0309,0.0311,0.0309,0.0235,0.0169,0.028,0,0,0,0,0,-0.0529,-0.0574,-0.0639,-0.0707,-0.077,-0.08,-0.0819,-0.0813,-0.0757,-0.0634,-0.0573,-0.0393,-0.0142,-0.0027,0.0101,0.0118,0.0269,0.0266,0.028,0.0416,0.0412,0.0337,0,0,0,0,0,0,-0.0536,-0.06,-0.0636,-0.0711,-0.0757,-0.0814,-0.0827,-0.0792,-0.071,-0.0625,-0.0481,-0.0376,-0.0136,-0.0204,0.0106,0.0143,0.0164,0.0391,0.0393,0.0418,0.0415,0.0412,0.0333,0,0,0,0,0]}]]